Вернуться в каталог

STARLINK-30405

АктивенСвязьVLEO
NORAD 57851·PAYLOAD·🇺🇸 United States

Запущен Sep 12, 2023 с Vandenberg Space Force Base

Loading…

Ближайшие Пролёты (ближайшие 24 часа)

TLE

СвежийSource: CelesTrak SupGP

Эпоха: Sep 15, 2026, 02:22 UTC

1 57851C 23141M   26258.09909722  .00037248  00000+0  11979-2 0  2588
2 57851  53.1579 122.9122 0001293  84.3187  29.8795 15.31680936    16

Отслеживайте STARLINK-30405 в реальном времени с AllMySat

Download on the App Store